Regional Weather Roundup
Issued by NWS Sterling, VA

Home | Current Version | Previous Version | Graphics & Text | Print | Product List | Glossary On
Versions: 1 2 3 4 5 6 7 8 9 10 11 12 13 14 15 16 17 18 19 20 21 22 23 24 25 26 27 28 29 30 31 32 33 34 35 36 37 38 39 40 41 42 43 44 45 46 47 48 49 50
000
ASUS41 KLWX 291310
RWRLWX

REGIONAL WEATHER ROUNDUP
NATIONAL WEATHER SERVICE BALTIMORE MD/WASHINGTON DC
900 AM EDT SAT AUG 29 2015

Note: "FAIR" indicates few or no clouds below 12,000 feet
with no significant weather and/or obstructions to visibility.
 TC=TEMPERATURE CELSIUS

 * =Non NWS site. Station does not report precipitation (e.g. rain,
    snow, etc.), thunder, or fog.

DCZ001-MDZ009-015-VAZ040>042-051-053>054-291400-
WASHINGTON METRO

CITY           SKY/WX    TMP DP  RH WIND       PRES   REMARKS
WASHINGTON NAT MOSUNNY   74  63  68 S9        30.22S
DULLES         MOSUNNY   71  60  68 S8        30.21S
ANDREWS AFB    SUNNY     74  60  60 SW10      30.22S
FT BELVOIR     SUNNY     73  67  81 VRB6      30.22S
QUANTICO       MOSUNNY   72  61  68 SW6       30.23S
COLLEGE PARK*  SUNNY     72  63  73 S3        30.21F
LEESBURG*      MOSUNNY   70  64  83 CALM      30.22F
MANASSAS*      MOSUNNY   70  64  83 CALM      30.22S
GAITHERSBURG*  SUNNY     72  61  68 S6        30.26S

$$

MDZ006>007-011-014-291400-
BALTIMORE METRO

CITY           SKY/WX    TMP DP  RH WIND       PRES   REMARKS
BWI AIRPORT    PTSUNNY   70  62  76 SW3       30.21S
MD SCIENCE CTR   N/A     73  60  63 MISG      30.22S
MARTIN STATE   SUNNY     73  66  78 CALM      30.23S
ANNAPOLIS      SUNNY     73  60  63 SW3       30.22R
FORT MEADE*    MOSUNNY   64  63  94 CALM      30.24S

$$

MDZ012-015-019>023-291400-
MARYLAND EASTERN SHORE

CITY           SKY/WX    TMP DP  RH WIND       PRES   REMARKS
OCEAN CITY     SUNNY     75  60  59 CALM      30.24R
SALISBURY      SUNNY     72  61  68 CALM      30.23S
BAY BRIDGE AP*   N/A     73  61  64 SW5       30.22F
CAMBRIDGE*     SUNNY     72  64  78 CALM      30.23S

$$

MDZ017>025-291400-
SOUTHERN MARYLAND

CITY           SKY/WX    TMP DP  RH WIND       PRES   REMARKS
PATUXENT RIVER PTSUNNY   73  65  75 W3        30.23S
ST INIGOES     SUNNY     74  66  76 W5        30.23R
LEONARDTOWN*   SUNNY     72  63  73 CALM      30.25S

$$

MDZ003>005-291400-
NORTH CENTRAL MARYLAND

CITY           SKY/WX    TMP DP  RH WIND       PRES   REMARKS
FREDERICK*     SUNNY     66  63  88 CALM      30.24S
HAGERSTOWN APT SUNNY     70  60  70 CALM      30.21S
WESTMINSTER*   SUNNY     70  61  73 SW6       30.22S

$$

MDZ501>502-291400-
WESTERN MARYLAND

CITY           SKY/WX    TMP DP  RH WIND       PRES   REMARKS
OAKLAND*       MOSUNNY   61  55  82 SW8       30.28S
CUMBERLAND*    MOSUNNY   63  59  88 CALM      30.26S

$$

VAZ025>031-291400-
SHENANDOAH VALLEY

CITY           SKY/WX    TMP DP  RH WIND       PRES   REMARKS
WINCHESTER*    SUNNY     72  61  68 SW6       30.20F
FRONT ROYAL*   FAIR      70  61  73 S3        30.20S
LURAY*         CLOUDY    64  63  94 CALM      30.23S
NEW MARKET*    FAIR      66  61  85 CALM      30.23S
STAUNTON*      MOSUNNY   69  62  76 CALM      30.26S
WAYNESBORO*    FAIR      70  61  73 CALM      30.26S

$$

WVZ021-048>050-054>055-291400-
EASTERN WEST VIRGINIA PANHANDLE

CITY           SKY/WX    TMP DP  RH WIND       PRES   REMARKS
MARTINSBURG    SUNNY     67  60  78 CALM      30.21S
PETERSBURG*    SUNNY     62  59  90 CALM      30.23S

$$

VAZ036>039-050-291400-
CENTRAL FOOTHILLS

CITY           SKY/WX    TMP DP  RH WIND       PRES   REMARKS
CHARLOTTESVILL MOSUNNY   69  62  78 CALM      30.23S
CULPEPER*      MOSUNNY   68  62  82 S3        30.22F
ORANGE*        SUNNY     72  63  73 S6        30.24S
GORDONSVILLE*  FAIR      70  63  78 S6        30.22S
WARRENTON*     FAIR      72  64  77 S6        30.21F

$$

VAZ055>057-291400-
NORTH AND CENTRAL PIEDMONT

CITY           SKY/WX    TMP DP  RH WIND       PRES   REMARKS
FREDERICKSBRG* SUNNY     72  63  75 SW3       30.22S
STAFFORD*      SUNNY     70  62  75 CALM      30.26F

$$

NCZ024-NYZ072-PAZ021-071-VAZ022-071-291400-
OTHER REGIONAL OBSERVATIONS

CITY           SKY/WX    TMP DP  RH WIND       PRES   REMARKS
NEW YORK CITY  SUNNY     73  53  49 CALM      30.24S
PHILADELPHIA   MOSUNNY   75  58  55 CALM      30.23S
PITTSBURGH     PTSUNNY   62  55  77 VRB3      30.20R
ROANOKE        CLOUDY    67  62  84 CALM      30.28R
RICHMOND       MOSUNNY   73  61  65 SW3       30.24S
RALEIGH        PTSUNNY   72  64  76 CALM      30.24S

$$

ANZ530>537-291400-
MARINE OBSERVATIONS

STATION/POSITION TIME  TEMP    WIND        PRES
                       AIR SEA DIR/SP/G
                 (UTC) (F)     (DEG/KT/KT) (MB)
THOMAS PT LIGHT  NOT AVBL

$$



USA.gov is the U.S. government's official web portal to all federal, state and local government web resources and services.